Location: Apeadero de Los Molinos-Guadarrama
(40.7091°N, 4.0689°W)
Time: 09:36:15
(UTC+00:00)

Daily predictions for brighter satellites

Satellite Brightness Start Highest point End
(mag) Time Altitude Azimuth Time Altitude Azimuth Time Altitude Azimuth
MOS 1 Rocket 3.0 20:04:18 10° NNE 20:08:39 70° ESE 20:12:53 10° S
ASTEX 1 3.4 20:04:37 10° S 20:09:31 86° E 20:14:28 10° N
STARLINK-1230 4.1 20:05:40 10° WSW 20:09:48 67° NW 20:13:56 10° NE
Cosmos 1703 Rocket 3.9 20:06:26 10° SSW 20:10:43 70° W 20:15:03 10° N
STARLINK-1070 3.9 20:07:25 10° WNW 20:11:30 61° SW 20:15:35 10° SE
ASTRO E2 4.3 20:09:37 10° SSW 20:12:20 18° S 20:15:04 10° SE
STARLINK-1243 4.3 20:10:42 10° WSW 20:14:47 61° NW 20:18:54 10° NE
Cosmos 2221 Rocket 4.2 20:11:12 10° SSE 20:15:23 38° E 20:19:35 10° NNE
STARLINK-1069 4.1 20:12:25 10° WNW 20:16:28 55° SW 20:20:31 10° SE
Meteor 2-9 Rocket 4.1 20:12:11 10° N 20:17:32 70° E 20:22:49 10° SSE
SL-4 R/B 2.0 20:14:56 10° NNW 20:17:47 36° NE 20:20:26 10° SE
STARLINK-1236 4.4 20:15:42 10° WSW 20:19:46 56° NW 20:23:51 10° NE
STARLINK-1085 4.2 20:17:26 10° WNW 20:21:27 50° SW 20:25:27 10° SSE
Cosmos 1190 Rocket 4.3 20:16:23 10° NNW 20:21:34 69° WSW 20:26:46 10° S
STARLINK-1086 4.4 20:22:26 10° WNW 20:26:24 45° SW 20:30:21 10° SSE
STARLINK-1094 4.4 20:24:43 10° NW 20:28:42 45° NNE 20:32:41 10° ESE
Cosmos 1515 4.3 20:25:52 10° SSW 20:29:37 61° W 20:33:24 10° N
Cosmos 2278 Rocket 2.6 20:25:05 10° SSW 20:30:44 71° WNW 20:36:26 10° NNE
Sich 1 Rocket 3.7 20:26:13 10° N 20:30:50 76° E 20:35:22 10° SSE
Resurs 01 Rocket 1.9 20:28:36 10° SSE 20:32:55 54° ENE 20:37:16 10° N
GPS 2-04 Rocket1 3.1 20:29:45 10° WSW 20:32:57 35° S 20:35:57 12° ESE
STARLINK-1117 4.3 20:29:40 10° NW 20:33:42 48° NNE 20:37:34 11° ESE
Okean 2 Rocket 3.3 20:31:58 10° N 20:36:18 51° E 20:40:27 11° SSE
STARLINK-1078 4.1 20:34:38 10° NW 20:38:42 52° NE 20:42:21 12° ESE
Meteor 1-12 Rocket 4.4 20:34:02 10° N 20:39:38 58° ENE 20:45:11 10° SSE
Cosmos 371 Rocket 3.3 20:38:02 10° SSW 20:42:53 84° ESE 20:47:46 10° NNE
SPOT 3 Rocket 3.7 20:38:10 10° S 20:43:18 75° WSW 20:48:29 10° NNW
STARLINK-1108 4.0 20:39:36 10° NW 20:43:41 57° NE 20:47:08 14° ESE
ATLAS 3B CENTAUR R/B 4.4 20:28:31 10° WSW 20:43:55 38° S 20:50:57 13° ESE
SL-4 R/B 3.7 20:41:05 10° SSE 20:44:08 17° SE 20:47:13 10° E
Cosmos 2279 Rocket 4.2 20:38:18 10° N 20:44:27 56° E 20:50:13 11° SSE
Cosmos 1954 Rocket 4.2 20:39:58 10° NNW 20:45:14 74° WSW 20:50:31 10° S
Terra 4.0 20:45:29 10° E 20:47:16 12° ENE 20:49:03 10° NE
Spot 2 Rocket 4.2 20:44:03 14° SE 20:48:02 39° ENE 20:52:42 10° N
STARLINK-1071 3.9 20:44:33 10° NW 20:48:40 62° NE 20:51:55 16° ESE
Abrixas rocket 3.9 20:46:22 10° NW 20:48:52 24° NNE 20:51:22 10° ENE
NOSS 8 (H) 4.3 20:46:00 10° SSW 20:49:20 52° ESE 20:52:18 10° NE
Cosmos 2151 Rocket 3.9 20:46:37 10° N 20:51:04 51° E 20:54:34 15° SSE
STARLINK-1110 3.8 20:48:20 10° NW 20:52:28 66° NE 20:55:32 17° ESE
H-2A R/B 4.3 20:48:39 10° SW 20:52:28 21° W 20:56:24 10° NW
Resurs 1-3 4.3 20:53:00 10° S 20:57:17 54° W 21:01:37 10° NNW
STARLINK-1124 3.7 20:54:31 10° NW 20:58:39 74° NE 21:01:29 20° ESE
Cosmos 1331 Rocket 4.5 20:57:23 11° SSE 21:01:54 39° ESE 21:06:41 10° NE
Aureole 2 Rocket 2.1 20:59:49 11° S 21:02:48 58° ESE 21:05:46 10° NNE
STARLINK-1122 3.6 20:59:29 10° NW 21:03:38 81° NE 21:06:15 22° SE
Cosmos 1300 Rocket 3.6 21:01:25 10° N 21:05:54 85° W 21:09:35 15° S
Cosmos 1437 Rocket 2.6 21:04:14 11° S 21:07:50 77° E 21:11:40 10° NNE
STARLINK-1126 3.6 21:04:29 10° NW 21:08:39 88° NE 21:11:06 24° SE
Cosmos 1378 4.3 21:09:41 22° ESE 21:10:33 25° E 21:13:38 10° NE
STARLINK-1082 3.6 21:09:25 10° NW 21:13:34 85° SW 21:15:48 26° SE
Cosmos 304 Rocket 3.7 21:09:31 10° SSW 21:14:17 79° ESE 21:19:06 10° NNE
ISS -3.6 21:12:22 10° WNW 21:15:42 62° SW 21:17:02 32° SSE
Meteor 1-15 Rocket 4.5 21:12:18 10° N 21:18:11 60° ENE 21:21:57 22° SSE
STARLINK-1100 3.6 21:14:23 10° NW 21:18:32 78° SW 21:20:35 29° SE
NOSS 2-2 (D) 2.9 21:15:32 10° SSW 21:19:04 67° ESE 21:22:49 10° NE
Lacrosse 5 2.1 21:14:10 10° NW 21:19:08 59° SW 21:22:07 23° SSE
Cosmos 1674 Rocket 3.5 21:19:10 13° S 21:22:58 88° W 21:27:24 10° N
CENTAUR R/B 4.5 21:16:36 10° NNW 21:23:23 29° NE 21:30:41 10° E
STARLINK-1083 3.6 21:19:23 10° NW 21:23:31 71° SW 21:25:23 31° SE
Cosmos 1378 Rocket 3.5 21:22:49 20° S 21:25:52 75° E 21:30:15 10° NNE
STARLINK-1125 3.7 21:24:23 10° WNW 21:28:30 64° SW 21:30:10 33° SSE
Cosmos 1766 4.3 21:28:20 10° NNE 21:31:54 30° ENE 21:32:47 27° ESE
STARLINK-1109 3.8 21:29:23 10° WNW 21:33:28 58° SW 21:34:57 35° SSE
IGS 5A 3.4 21:31:57 29° S 21:34:01 86° WSW 21:38:12 10° NNW
Cosmos 1943 Rocket 2.4 21:31:46 22° S 21:35:02 48° ESE 21:40:24 10° NE
Cosmos 2297 3.9 21:29:27 10° SSW 21:35:07 74° WNW 21:40:51 10° NNE
NOSS 2-2 (E) 3.7 21:32:52 10° SW 21:36:22 58° NW 21:40:13 10° NNE
Cosmos 1833 Rocket 4.1 21:32:26 10° NW 21:37:16 30° WSW 21:41:52 11° SSW
STARLINK-1091 4.0 21:34:22 10° WNW 21:38:24 52° SW 21:39:42 36° S
OE (NEXTSAT) 4.4 21:35:21 10° SW 21:38:46 53° SSE 21:39:15 48° ESE
Landsat 7 3.8 21:36:41 26° S 21:39:21 79° WSW 21:44:09 10° NNW
STARLINK-1072 4.1 21:39:24 10° WNW 21:43:22 47° SW 21:44:31 36° S
Cosmos 2082 Rocket 3.0 21:38:51 10° NW 21:44:15 45° WSW 21:47:54 20° S
Cosmos 1975 Rocket 3.6 21:44:36 35° ESE 21:45:26 39° E 21:49:34 10° NNE
STARLINK-1099 4.5 21:41:41 10° NW 21:45:40 43° NNE 21:47:32 26° E
SeaSat 1 4.4 21:43:10 10° ENE 21:44:35 13° E 21:44:35 13° E
CZ-4B DEB 4.2 21:45:24 56° S 21:46:03 89° WSW 21:49:24 10° NNW
Meteor 1-23 Rocket 4.4 21:41:05 12° SSW 21:46:21 73° W 21:52:01 10° N
STARLINK-1096 4.3 21:44:25 10° WNW 21:48:20 42° SW 21:49:17 36° S
STARLINK-1104 4.3 21:46:38 10° NW 21:50:39 47° NNE 21:52:18 30° E
Cosmos 2369 Rocket 2.5 21:49:04 32° SSE 21:51:13 47° ESE 21:56:37 10° NE
STARLINK-1079 4.4 21:49:26 10° WNW 21:53:17 38° SW 21:54:04 35° SSW
STARLINK-1144 4.2 21:51:37 10° NW 21:55:39 51° NNE 21:57:05 34° E
SPOT 5 3.0 21:53:31 36° SSE 21:55:42 76° ENE 22:01:04 10° N
ATLAS CENTAUR R/B 3.8 21:59:35 11° ENE 21:59:35 11° ENE 21:59:53 10° ENE
STARLINK-1103 4.1 21:56:34 10° NW 22:00:38 55° NE 22:01:51 39° E
NOSS 2-2 (C) 4.5 21:57:41 10° WSW 22:01:03 40° NW 22:04:42 10° NNE
ERS-1 Rocket 2.9 21:59:40 37° S 22:01:43 82° WSW 22:06:47 10° NNW
Okean 2 3.3 22:02:00 55° SSE 22:02:45 71° E 22:06:54 10° NNE
Cosmos 2026 Rocket 4.1 22:00:23 34° SSE 22:02:59 58° E 22:09:11 10° NNE
ATLAS 2AS CENTAUR R/B 3.3 22:00:30 29° SSE 22:04:07 45° ESE 22:11:36 10° NE
STARLINK-1101 3.9 22:01:31 10° NW 22:05:38 60° NE 22:06:38 44° E
Meteor 1-22 Rocket 4.2 22:01:11 10° N 22:07:04 72° E 22:09:05 41° SSE
Resurs 01 Rocket 4.2 22:07:26 10° WSW 22:09:43 14° W 22:11:59 10° WNW
STARLINK-1102 3.8 22:06:30 10° NW 22:10:38 65° NE 22:11:26 51° E
NOSS 3-2 (A) 4.2 22:03:06 10° NNW 22:10:44 70° NE 22:15:10 31° SE
Cosmos 1805 3.3 22:07:53 10° NNW 22:11:48 72° W 22:12:24 59° SSW
GPS 2-04 Rocket1 4.5 22:08:57 10° WSW 22:10:11 18° WSW 22:10:11 18° WSW
Cosmos 1470 4.1 22:08:46 10° NNE 22:11:51 26° ENE 22:11:51 26° ENE
Okean 1 Rocket 4.0 22:09:10 10° NNW 22:13:24 43° W 22:15:05 29° SW
STARLINK-1111 3.7 22:11:27 10° NW 22:15:36 71° NE 22:16:12 60° E
Cosmos 968 Rocket 4.4 22:11:31 10° N 22:16:13 34° ENE 22:17:31 30° E
Cosmos 1455 Rocket 3.1 22:14:48 10° N 22:19:06 57° E 22:19:25 55° E
ATLAS 5 CENTAUR R/B 3.6 22:11:26 10° SSW 22:21:46 19° ENE 22:22:35 10° ENE
STARLINK-1073 3.5 22:16:26 10° NW 22:20:35 78° NE 22:20:59 69° E
USA 238 DEB 3.9 22:15:18 10° NNW 22:22:35 79° NE 22:25:51 37° SE
USA 238 3.9 22:15:24 10° NNW 22:22:41 78° NE 22:25:58 37° SE
SL-8 R/B 3.7 22:18:15 10° WNW 22:23:05 80° NNE 22:24:13 52° ESE
SL-4 R/B 2.3 22:18:33 10° SW 22:23:18 88° NW 22:28:11 10° NE
Cosmos 1842 3.1 22:24:08 80° SW 22:24:17 84° W 22:28:12 10° N
Terra 1.8 22:23:15 53° S 22:24:20 79° WSW 22:29:07 10° NNW
Abrixas rocket 3.7 22:21:39 10° WNW 22:23:18 29° WNW 22:23:18 29° WNW
STARLINK-1121 3.4 22:21:24 10° NW 22:25:34 85° NE 22:25:46 80° E
Cosmos 1758 4.4 22:21:55 10° NNE 22:25:25 33° ENE 22:25:25 33° ENE
Meteor 2-13 Rocket 4.4 22:23:31 42° S 22:25:45 77° E 22:31:56 10° N
CARTOSAT-1 4.4 22:24:56 36° SW 22:25:59 43° W 22:30:07 10° NNW
STARLINK-1106 3.5 22:26:24 10° NW 22:30:34 88° SW 22:30:34 88° SW
STARLINK-1112 3.6 22:31:21 10° NW 22:35:19 77° W 22:35:19 77° W
STARLINK-1128 3.7 22:36:20 10° NW 22:40:06 67° W 22:40:06 67° W
Cosmos 2263 4.1 22:39:18 46° SSW 22:41:02 88° ESE 22:46:41 10° NNE
Cosmos 1733 4.1 22:40:56 10° NNW 22:44:31 40° W 22:44:31 40° W
Cosmos 1536 Rocket 4.0 22:45:44 47° ENE 22:45:44 47° ENE 22:49:28 10° NNE
STARLINK-1113 3.9 22:41:20 10° NW 22:44:53 58° W 22:44:53 58° W
Cosmos 1271 Rocket 3.1 22:49:29 61° NNE 22:49:29 61° NNE 22:52:47 10° N
Cosmos 1242 Rocket 3.2 22:49:25 55° NW 22:49:25 55° NW 22:52:39 10° N
STARLINK-1119 4.2 22:46:21 10° WNW 22:49:41 50° W 22:49:41 50° W
Meteor 1-21 4.3 22:50:09 46° SSW 22:51:50 72° W 22:57:27 10° N
COSMOS 2455 2.9 22:52:50 52° SE 22:53:09 53° ESE 22:59:00 10° NE
Spot 4 4.2 22:53:29 49° E 22:53:51 50° ENE 22:58:33 10° N
STARLINK-1114 4.4 22:51:20 10° WNW 22:54:27 43° W 22:54:27 43° W
Cosmos 1354 Rocket 4.4 22:50:39 10° N 22:55:49 50° ENE 22:56:35 46° E
Cosmos 1544 Rocket 3.5 22:51:32 10° N 22:55:47 77° WNW 22:55:47 77° WNW
Cosmos 1486 Rocket 3.9 22:52:39 10° NNW 22:57:57 78° WSW 22:58:32 68° SSW
Cosmos 1707 3.3 22:59:44 56° NNE 22:59:44 56° NNE 23:02:51 10° N
Cosmos 1833 4.3 22:54:35 10° NNW 23:00:12 65° ENE 23:01:10 55° ESE
SL-27 R/B 4.0 23:00:37 10° NNW 23:03:01 32° WNW 23:03:01 32° WNW
ATLAS 3B CENTAUR R/B 4.0 22:58:15 10° WSW 23:05:10 26° SW 23:05:10 26° SW
ALOS 2 3.8 23:07:47 32° ENE 23:07:47 32° ENE 23:11:36 10° N
Cosmos 1726 3.4 23:04:46 10° N 23:07:20 35° NE 23:07:20 35° NE
Cosmos 1417 Rocket 4.5 23:05:13 10° N 23:11:35 82° W 23:12:59 57° S
COSMOS 2487 4.3 23:08:26 10° N 23:10:32 27° NNE 23:10:32 27° NNE
CENTAUR R/B 3.1 23:06:51 10° NW 23:15:06 88° WSW 23:18:17 46° SSE
Cosmos 1992 Rocket 4.3 23:16:14 51° WSW 23:17:15 61° WNW 23:22:25 10° NNE
Meteor 1-16 Rocket 4.3 23:12:00 10° N 23:17:25 57° ENE 23:17:49 56° E
Cosmos 1867 3.6 23:12:38 10° NNW 23:18:05 68° NE 23:18:45 61° E
ATLAS 3B R/B 3.3 23:11:34 10° NNW 23:18:10 50° NE 23:21:10 32° ESE
Cosmos 1943 Rocket 4.1 23:14:31 10° WSW 23:19:01 25° NW 23:23:36 10° N
EO 1 Del DPAF 4.1 23:16:26 10° N 23:19:29 47° NW 23:19:29 47° NW
NOSS 3-2 (C) 4.1 23:12:46 10° NW 23:20:30 74° WSW 23:23:02 49° S
SeaSat 1 2.5 23:18:50 10° NNE 23:23:45 71° WNW 23:24:20 63° WSW
NOSS 3-4 (A) 3.7 23:23:53 31° WSW 23:26:43 61° NW 23:32:56 10° NNE
NOSS 3-4 (C) 3.7 23:24:01 32° WSW 23:26:48 62° NW 23:33:03 10° NNE
RESURS DK-1 3.9 23:29:48 27° NE 23:29:48 27° NE 23:32:00 10° NE
BREEZE-M R/B 4.0 23:23:00 10° SW 23:33:12 65° SE 23:37:51 10° ENE
Meteor 2-10 3.9 23:29:45 10° NNW 23:34:44 70° W 23:34:44 70° W
Cosmos 2369 Rocket 4.0 23:30:47 10° WSW 23:35:27 26° NW 23:40:09 10° N
ATLAS CENTAUR R/B 2.2 23:35:42 49° NW 23:35:42 49° NW 23:39:46 10° NNE
Cosmos 2315 Rocket 4.1 23:29:54 10° N 23:36:03 61° E 23:36:59 55° ESE
Cosmos 1340 Rocket 3.6 23:35:01 10° NNW 23:38:06 51° NNW 23:38:06 51° NNW
Cosmos 1025 Rocket 4.3 23:39:50 32° WNW 23:39:51 32° WNW 23:43:43 10° NNW
S3M 4.2 23:35:48 10° NNW 23:41:51 59° W 23:42:52 53° SW
Cosmos 1953 3.5 23:43:33 10° NNW 23:46:22 37° NW 23:46:22 37° NW
